Content
SEND FEEDBACK

Daily
Averages
Monthly
Summary
United States of America

CAYOTE, TEXAS


Home > North America > United States > Texas
Elevation: 710 feet     Latitude: 31 48N     Longitude: 097 26W

WEATHER
 
SELECT A DAY
Number of Records: 200,385;   Date Range: 1/1/95 - 7/23/14
 
SHARE

PRINT THIS DATA

[ ← Previous Day ]
WEATHER ALMANAC - FEBRUARY 1, 2013
[ Next Day → ]
[ °C ]   °F
Weather ElementAverageHighLow
Temperature49 °F63 °F (4:51 pm)34 °F (6:51 am)
Dewpoint30.4 °F39 °F (11:51 pm)25 °F (5:51 am)
Humidity50.2 %70 % (6:51 am)31 % (3:51 pm)
Barometer30.28 in30.39 in (8:51 am)30.17 in (6:51 pm)
Wind Speed8.7 mph17.3 mph (1:51 am)
Wind Gust24.2 mph (1:51 am)
Weather ElementAverage
Visibility9.9 mi
Wind DirectionE (93.5 °)

Weather ElementTotal
Precipitation---
Heating Degree Days16.5 (Base 65)
Averaged from 23 records on February 1, 2013
WEATHER CONDITIONS BREAKOUT
WIND DIRECTION BREAKOUT
WEATHER BY HOUR - FEBRUARY 1, 2013
[ °C ]   °F
Local TimeTemperatureDewpointHumidityBarometerVisibilityWind DirectionWind SpeedGust SpeedPrecipitationEventsConditions
1:51 AM44.1 °F28.9 °F55 %30.30 in10.0 miNNE (30°)17.3 mph24.2 mphClear
2:51 AM43.0 °F28.9 °F58 %30.32 in10.0 miNNE (20°)12.7 mphClear
3:51 AM41.0 °F27.0 °F57 %30.33 in10.0 miNNE (20°)10.4 mphClear
4:51 AM39.9 °F26.1 °F58 %30.33 in10.0 miNNE (20°)9.2 mphClear
5:51 AM37.9 °F25.0 °F60 %30.34 in10.0 miNNE (20°)10.4 mphClear
6:51 AM34.0 °F25.0 °F70 %30.37 in10.0 miNNE (20°)4.6 mphClear
7:51 AM37.0 °F25.0 °F62 %30.38 in10.0 miNorth (10°)10.4 mphClear
8:51 AM37.0 °F25.0 °F62 %30.39 in10.0 miNNE (20°)8.1 mphClear
9:51 AM41.0 °F25.0 °F53 %30.39 in10.0 miNNE (20°)8.1 mphClear
10:51 AM44.1 °F26.1 °F49 %30.37 in10.0 miNorth (360°)6.9 mphClear
11:51 AM48.9 °F28.0 °F44 %30.36 in10.0 miCalmClear
12:51 PM52.0 °F28.0 °F40 %30.31 in10.0 miCalmClear
1:51 PM55.0 °F28.0 °F35 %30.28 in10.0 miSouth (170°)4.6 mphClear
2:51 PM59.0 °F30.0 °F33 %30.25 in8.0 miVariable4.6 mphClear
3:51 PM62.1 °F30.9 °F31 %30.22 in10.0 miSouth (170°)4.6 mphClear
4:51 PM63.0 °F34.0 °F34 %30.20 in10.0 miSSE (160°)11.5 mphClear
5:51 PM60.1 °F35.1 °F39 %30.18 in10.0 miSSE (150°)9.2 mphClear
6:51 PM54.0 °F36.0 °F51 %30.17 in10.0 miESE (120°)9.2 mphClear
7:51 PM54.0 °F37.9 °F55 %30.17 in10.0 miSE (130°)9.2 mphClear
8:51 PM54.0 °F37.9 °F55 %30.18 in10.0 miSSE (160°)10.4 mphClear
9:51 PM55.9 °F37.0 °F49 %30.19 in10.0 miSouth (180°)13.8 mphClear
10:51 PM55.9 °F36.0 °F47 %30.19 in10.0 miSouth (190°)13.8 mphClear
11:51 PM54.0 °F39.0 °F57 %30.20 in10.0 miSouth (180°)10.4 mphClear
Hourly data recorded from KACT, located miles away from Cayote, Texas







STORIES FROM OUR PARTNERS